Weather History for Emporia, KS

Change the Weather History Date:

Thursday, March 27, 2014

  Actual Average Record
Temperature  
Mean Temperature 55 °F 49 °F  
Max Temperature 75 °F 62 °F 76 °F (2012)
Min Temperature 34 °F 37 °F 23 °F (2001)
Degree Days  
Heating Degree Days 10 16  
Month to date heating degree days 677 549  
Since 1 July heating degree days 5002 4371  
Cooling Degree Days 0 0  
Month to date cooling degree days 0 0  
Year to date cooling degree days 0 0  
Growing Degree Days 5 (Base 50)    
Moisture  
Dew Point 44 °F    
Average Humidity 59    
Maximum Humidity 89    
Minimum Humidity 29    
Precipitation  
Precipitation T in 0.07 in 1.26 in (2004)
Month to date precipitation 0.41 2.21  
Year to date precipitation 0.90 4.07  
Sea Level Pressure  
Sea Level Pressure 29.53 in    
Wind  
Wind Speed 24 mph (SW)    
Max Wind Speed 44 mph    
Max Gust Speed 55 mph    
Visibility 10 miles    
Events Thunderstorm    
T = Trace of Precipitation, MM = Missing Value Source: NWS Daily Summary

Daily Weather History Graph

Daily Weather History Graph

Search for Another Location

Airport:

Trip Planner

Search our weather history database for the weather conditions in past years. The results will help you decide how hot, cold, wet, or windy it might be!

Date:

Astronomy

Mar. 27, 2014 Rise Set
Actual Time 7:17 AM CDT 7:43 PM CDT
Civil Twilight 6:50 AM CDT 8:09 PM CDT
Nautical Twilight 6:19 AM CDT 8:41 PM CDT
Astronomical Twilight 5:48 AM CDT 9:12 PM CDT
Moon 5:06 AM CDT (3/27) 4:34 PM CDT (3/27)
Length of Visible Light 13h 18m
Length of Day
12h 25m
Waning Crescent, 13% of the Moon is Illuminated
Mar 27
Waning Crescent
Mar 30
New
Apr 7
First Quarter
Apr 15
Full
Apr 22
Last Quarter

Hourly Weather History & Observations

Time (CDT) Temp. Windchill Dew Point Humidity Pressure Visibility Wind Dir Wind Speed Gust Speed Precip Events Conditions
12:53 AM 45.0 °F 36.4 °F 41.0 °F 86% 29.61 in 8.0 mi South 23.0 mph 36.8 mph N/A   Overcast
1:42 AM 46.0 °F 37.4 °F 41.0 °F 83% 29.58 in 9.0 mi South 25.3 mph 41.4 mph 0.00 in Thunderstorm Overcast
1:53 AM 46.0 °F 37.4 °F 41.0 °F 83% 29.58 in 9.0 mi South 25.3 mph 42.6 mph 0.00 in   Overcast
2:53 AM 46.9 °F - 42.1 °F 83% 29.54 in 10.0 mi South 26.5 mph 39.1 mph N/A   Overcast
3:53 AM 50.0 °F - 45.0 °F 83% 29.49 in 9.0 mi South 31.1 mph 44.9 mph N/A   Overcast
4:53 AM 52.0 °F - 46.9 °F 83% 29.46 in 9.0 mi South 32.2 mph 44.9 mph N/A   Overcast
5:53 AM 53.1 °F - 48.9 °F 86% 29.44 in 9.0 mi South 27.6 mph 46.0 mph N/A   Overcast
6:53 AM 54.0 °F - 50.0 °F 86% 29.47 in 10.0 mi South 26.5 mph 36.8 mph N/A   Overcast
7:53 AM 55.0 °F - 50.0 °F 83% 29.47 in 9.0 mi South 24.2 mph 35.7 mph N/A   Overcast
8:03 AM 55.0 °F - 51.1 °F 86% 29.46 in 9.0 mi South 25.3 mph 34.5 mph N/A   Overcast
8:10 AM 55.9 °F - 51.1 °F 84% 29.45 in 9.0 mi South 24.2 mph 33.4 mph N/A   Overcast
8:44 AM 57.0 °F - 51.1 °F 81% 29.44 in 10.0 mi South 26.5 mph 36.8 mph N/A   Overcast
8:53 AM 57.0 °F - 51.1 °F 81% 29.44 in 10.0 mi South 27.6 mph 35.7 mph N/A   Overcast
9:11 AM 57.0 °F - 51.1 °F 81% 29.43 in 10.0 mi South 21.9 mph 33.4 mph N/A   Overcast
9:18 AM 57.0 °F - 52.0 °F 83% 29.43 in 10.0 mi South 27.6 mph 34.5 mph N/A   Overcast
9:53 AM 60.1 °F - 52.0 °F 75% 29.42 in 10.0 mi South 27.6 mph 39.1 mph N/A   Overcast
10:53 AM 64.9 °F - 52.0 °F 63% 29.39 in 10.0 mi SSW 38.0 mph 54.1 mph N/A   Scattered Clouds
11:53 AM 66.9 °F - 50.0 °F 54% 29.40 in 10.0 mi SSW 34.5 mph 51.8 mph N/A   Mostly Cloudy
12:53 PM 71.1 °F - 46.9 °F 42% 29.38 in 10.0 mi SSW 36.8 mph 44.9 mph N/A   Mostly Cloudy
1:09 PM 71.1 °F - 44.1 °F 38% 29.39 in 10.0 mi SW 32.2 mph 48.3 mph N/A Thunderstorm Mostly Cloudy
1:24 PM 71.1 °F - 43.0 °F 36% 29.39 in 10.0 mi SW 27.6 mph 44.9 mph N/A   Mostly Cloudy
1:53 PM 73.9 °F - 39.0 °F 28% 29.39 in 10.0 mi WSW 29.9 mph 46.0 mph N/A   Scattered Clouds
2:53 PM 66.9 °F - 46.0 °F 47% 29.44 in 9.0 mi WNW 27.6 mph 39.1 mph N/A   Clear
3:53 PM 66.0 °F - 42.1 °F 42% 29.49 in 10.0 mi West 24.2 mph 34.5 mph N/A   Clear
4:53 PM 63.0 °F - 39.0 °F 41% 29.54 in 10.0 mi WNW 19.6 mph 32.2 mph N/A   Clear
5:53 PM 59.0 °F - 37.0 °F 44% 29.60 in 10.0 mi WNW 19.6 mph 32.2 mph N/A   Clear
6:53 PM 54.0 °F - 36.0 °F 51% 29.67 in 10.0 mi NW 18.4 mph 29.9 mph N/A   Clear
7:53 PM 48.0 °F - 34.0 °F 58% 29.73 in 10.0 mi NW 17.3 mph 25.3 mph N/A   Clear
8:53 PM 44.1 °F 37.1 °F 33.1 °F 65% 29.79 in 10.0 mi NW 15.0 mph 24.2 mph N/A   Clear
9:53 PM 41.0 °F 33.5 °F 32.0 °F 70% 29.84 in 10.0 mi NW 13.8 mph 23.0 mph N/A   Clear
10:53 PM 37.9 °F 31.5 °F 30.9 °F 76% 29.85 in 8.0 mi NW 9.2 mph - N/A   Clear
11:53 PM 36.0 °F 29.6 °F 30.0 °F 79% 29.87 in 8.0 mi NNW 8.1 mph - N/A   Clear